Time,TemperatureF,DewpointF,PressureIn,WindDirection,WindDirectionDegrees,WindSpeedMPH,WindSpeedGustMPH,Humidity,HourlyPrecipIn,Conditions,Clouds,dailyrainin,SolarRadiationWatts/m^2,SoftwareType,DateUTC
2013-03-15 00:00:00,26.9,25.0,30.11,SSW,208,2.0,5.0,94,0.00,,,0.00,0,weatherlink.com 1.10,2013-03-15 05:00:00,
2013-03-15 00:15:00,27.0,26.0,30.10,SSW,208,4.0,5.0,94,0.00,,,0.00,0,weatherlink.com 1.10,2013-03-15 05:15:00,
2013-03-15 00:30:00,26.8,25.0,30.10,SSW,208,2.0,4.0,94,0.00,,,0.00,0,weatherlink.com 1.10,2013-03-15 05:30:00,
2013-03-15 00:45:00,26.7,26.0,30.09,SSW,194,2.0,3.0,95,0.00,,,0.00,0,weatherlink.com 1.10,2013-03-15 05:45:00,
2013-03-15 01:00:00,26.7,26.0,30.10,SSW,197,2.0,3.0,95,0.00,,,0.00,0,weatherlink.com 1.10,2013-03-15 06:00:00,
2013-03-15 01:15:00,26.7,26.0,30.10,SSW,197,1.0,4.0,95,0.00,,,0.00,0,weatherlink.com 1.10,2013-03-15 06:15:00,
2013-03-15 01:30:00,26.5,25.0,30.10,SSW,197,0.0,1.0,95,0.00,,,0.00,0,weatherlink.com 1.10,2013-03-15 06:30:00,
2013-03-15 01:45:00,26.5,25.0,30.09,SSW,197,0.0,3.0,95,0.00,,,0.00,0,weatherlink.com 1.10,2013-03-15 06:45:00,
2013-03-15 02:00:00,26.4,25.0,30.08,SSW,197,1.0,2.0,95,0.00,,,0.00,0,weatherlink.com 1.10,2013-03-15 07:00:00,
2013-03-15 02:15:00,26.6,26.0,30.08,SSW,197,0.0,1.0,96,0.00,,,0.00,0,weatherlink.com 1.10,2013-03-15 07:15:00,
2013-03-15 02:30:00,26.7,26.0,30.07,SSW,197,2.0,3.0,95,0.00,,,0.00,0,weatherlink.com 1.10,2013-03-15 07:30:00,
2013-03-15 02:45:00,26.8,26.0,30.06,SSW,197,2.0,3.0,96,0.00,,,0.00,0,weatherlink.com 1.10,2013-03-15 07:45:00,
2013-03-15 03:00:00,26.9,26.0,30.06,SSW,197,1.0,2.0,95,0.00,,,0.00,0,weatherlink.com 1.10,2013-03-15 08:00:00,
2013-03-15 03:15:00,27.0,26.0,30.05,SSW,197,3.0,3.0,96,0.00,,,0.00,0,weatherlink.com 1.10,2013-03-15 08:15:00,
2013-03-15 03:30:00,26.8,26.0,30.04,SSW,197,1.0,2.0,95,0.00,,,0.00,0,weatherlink.com 1.10,2013-03-15 08:30:00,
2013-03-15 03:45:00,26.5,25.0,30.04,SSW,197,1.0,2.0,95,0.00,,,0.00,0,weatherlink.com 1.10,2013-03-15 08:45:00,
2013-03-15 04:15:00,26.4,25.0,30.02,SSW,197,0.0,1.0,96,0.00,,,0.00,0,weatherlink.com 1.10,2013-03-15 09:15:00,
2013-03-15 04:30:00,26.6,26.0,30.02,SSW,197,0.0,0.0,96,0.00,,,0.00,0,weatherlink.com 1.10,2013-03-15 09:30:00,
2013-03-15 04:45:00,26.7,26.0,30.02,SSW,197,2.0,2.0,96,0.00,,,0.00,0,weatherlink.com 1.10,2013-03-15 09:45:00,
2013-03-15 05:00:00,26.7,26.0,30.02,SSW,197,0.0,0.0,96,0.00,,,0.00,0,weatherlink.com 1.10,2013-03-15 10:00:00,
2013-03-15 05:15:00,26.7,26.0,30.01,SSW,197,0.0,0.0,96,0.00,,,0.00,0,weatherlink.com 1.10,2013-03-15 10:15:00,
2013-03-15 05:30:00,26.9,26.0,30.01,SSW,197,0.0,1.0,96,0.00,,,0.00,0,weatherlink.com 1.10,2013-03-15 10:30:00,
2013-03-15 05:45:00,27.0,26.0,30.02,SSW,197,0.0,0.0,96,0.00,,,0.00,0,weatherlink.com 1.10,2013-03-15 10:45:00,
2013-03-15 06:00:00,27.1,26.0,30.01,SSW,197,0.0,0.0,96,0.00,,,0.00,0,weatherlink.com 1.10,2013-03-15 11:00:00,
2013-03-15 06:15:00,27.1,26.0,30.00,SSW,197,0.0,0.0,96,0.00,,,0.00,0,weatherlink.com 1.10,2013-03-15 11:15:00,
2013-03-15 06:30:00,27.1,26.0,30.00,SSW,197,0.0,0.0,96,0.00,,,0.00,0,weatherlink.com 1.10,2013-03-15 11:30:00,
2013-03-15 06:46:00,27.2,26.0,30.00,SSW,197,0.0,0.0,96,0.00,,,0.00,0,weatherlink.com 1.10,2013-03-15 11:46:00,
2013-03-15 07:01:00,27.4,26.0,30.00,SSW,197,1.0,1.0,96,0.00,,,0.00,0,weatherlink.com 1.10,2013-03-15 12:01:00,
2013-03-15 07:16:00,27.7,27.0,30.01,SSW,197,1.0,2.0,96,0.00,,,0.00,0,weatherlink.com 1.10,2013-03-15 12:16:00,
2013-03-15 07:31:00,27.9,27.0,30.00,SSW,197,0.0,1.0,96,0.00,,,0.00,18,weatherlink.com 1.10,2013-03-15 12:31:00,
2013-03-15 07:46:00,28.2,27.0,30.00,SW,236,1.0,3.0,96,0.00,,,0.00,30,weatherlink.com 1.10,2013-03-15 12:46:00,
2013-03-15 08:01:00,28.4,27.0,30.00,SW,236,2.0,2.0,96,0.00,,,0.00,49,weatherlink.com 1.10,2013-03-15 13:01:00,
2013-03-15 08:16:00,28.8,28.0,30.00,WSW,245,2.0,4.0,96,0.00,,,0.00,72,weatherlink.com 1.10,2013-03-15 13:16:00,
2013-03-15 08:31:00,29.2,28.0,30.00,WSW,250,2.0,5.0,95,0.00,,,0.00,90,weatherlink.com 1.10,2013-03-15 13:31:00,
2013-03-15 08:46:00,29.9,29.0,30.00,West,275,2.0,4.0,95,0.00,,,0.00,114,weatherlink.com 1.10,2013-03-15 13:46:00,
2013-03-15 09:01:00,30.5,29.0,30.00,WNW,286,0.0,3.0,94,0.00,,,0.00,139,weatherlink.com 1.10,2013-03-15 14:01:00,
2013-03-15 09:16:00,31.1,29.0,29.99,WNW,286,0.0,2.0,93,0.00,,,0.00,172,weatherlink.com 1.10,2013-03-15 14:16:00,
2013-03-15 09:31:00,31.8,30.0,29.99,NNW,331,3.0,5.0,91,0.00,,,0.00,195,weatherlink.com 1.10,2013-03-15 14:31:00,
2013-03-15 09:46:00,32.3,30.0,29.99,North,350,3.0,6.0,90,0.00,,,0.00,221,weatherlink.com 1.10,2013-03-15 14:46:00,
2013-03-15 10:02:00,32.6,30.0,29.99,NNE,14,3.0,6.0,90,0.00,,,0.00,257,weatherlink.com 1.10,2013-03-15 15:02:00,
2013-03-15 10:17:00,32.8,30.0,29.99,NE,38,4.0,7.0,89,0.00,,,0.00,272,weatherlink.com 1.10,2013-03-15 15:17:00,
2013-03-15 10:32:00,33.2,30.0,29.98,NNE,17,6.0,6.0,89,0.00,,,0.00,223,weatherlink.com 1.10,2013-03-15 15:32:00,
2013-03-15 10:47:00,33.2,30.0,29.98,NE,36,4.0,7.0,89,0.00,,,0.00,264,weatherlink.com 1.10,2013-03-15 15:47:00,
2013-03-15 11:17:00,32.9,31.0,29.98,NE,35,6.0,7.0,91,0.00,,,0.00,290,weatherlink.com 1.10,2013-03-15 16:17:00,
2013-03-15 11:32:00,33.0,31.0,29.98,NNE,32,4.0,7.0,92,0.00,,,0.00,290,weatherlink.com 1.10,2013-03-15 16:32:00,
2013-03-15 11:47:00,33.1,31.0,29.98,NE,38,2.0,6.0,92,0.00,,,0.00,283,weatherlink.com 1.10,2013-03-15 16:47:00,
2013-03-15 12:02:00,33.0,31.0,29.98,NE,51,6.0,7.0,93,0.00,,,0.00,204,weatherlink.com 1.10,2013-03-15 17:02:00,
2013-03-15 12:17:00,32.8,31.0,29.98,NNE,18,6.0,7.0,93,0.01,,,0.01,274,weatherlink.com 1.10,2013-03-15 17:17:00,
2013-03-15 12:32:00,32.9,31.0,29.98,NNE,26,3.0,7.0,94,0.01,,,0.01,332,weatherlink.com 1.10,2013-03-15 17:32:00,
2013-03-15 13:31:00,34.4,32.0,29.98,ENE,77,2.0,4.0,92,0.01,,,0.02,327,weatherlink.com 1.10,2013-03-15 18:31:00,
2013-03-15 13:46:00,34.5,33.0,29.98,ENE,69,3.0,5.0,92,0.01,,,0.02,345,weatherlink.com 1.10,2013-03-15 18:46:00,
2013-03-15 14:16:00,34.7,33.0,29.97,ENE,59,3.0,5.0,92,0.01,,,0.02,311,weatherlink.com 1.10,2013-03-15 19:16:00,
2013-03-15 14:31:00,35.0,33.0,29.96,ENE,57,3.0,3.0,93,0.01,,,0.03,343,weatherlink.com 1.10,2013-03-15 19:31:00,
2013-03-15 14:47:00,34.7,33.0,29.96,NE,51,3.0,5.0,93,0.01,,,0.03,302,weatherlink.com 1.10,2013-03-15 19:47:00,
2013-03-15 15:02:00,34.5,33.0,29.96,NE,49,4.0,6.0,93,0.01,,,0.03,272,weatherlink.com 1.10,2013-03-15 20:02:00,
2013-03-15 15:32:00,34.7,33.0,29.94,NE,53,3.0,5.0,93,0.00,,,0.03,253,weatherlink.com 1.10,2013-03-15 20:32:00,
2013-03-15 15:47:00,34.9,33.0,29.94,East,90,2.0,3.0,94,0.00,,,0.03,251,weatherlink.com 1.10,2013-03-15 20:47:00,
2013-03-15 16:02:00,34.8,33.0,29.94,East,84,2.0,5.0,94,0.00,,,0.03,120,weatherlink.com 1.10,2013-03-15 21:02:00,
2013-03-15 16:17:00,34.6,33.0,29.92,East,94,3.0,7.0,93,0.00,,,0.03,158,weatherlink.com 1.10,2013-03-15 21:17:00,
2013-03-15 16:32:00,34.6,33.0,29.92,East,89,3.0,8.0,92,0.00,,,0.03,98,weatherlink.com 1.10,2013-03-15 21:32:00,
2013-03-15 16:47:00,34.4,32.0,29.91,East,98,7.0,10.0,91,0.00,,,0.03,74,weatherlink.com 1.10,2013-03-15 21:47:00,
2013-03-15 17:02:00,33.7,32.0,29.91,East,86,11.0,11.0,92,0.00,,,0.03,46,weatherlink.com 1.10,2013-03-15 22:02:00,
2013-03-15 17:17:00,33.2,31.0,29.93,East,84,2.0,10.0,91,0.00,,,0.03,35,weatherlink.com 1.10,2013-03-15 22:17:00,
2013-03-15 17:32:00,32.7,31.0,29.92,ENE,77,4.0,10.0,92,0.00,,,0.03,32,weatherlink.com 1.10,2013-03-15 22:32:00,
2013-03-15 17:47:00,32.3,31.0,29.91,East,82,8.0,10.0,93,0.00,,,0.03,33,weatherlink.com 1.10,2013-03-15 22:47:00,
2013-03-15 18:02:00,31.8,30.0,29.92,East,80,7.0,9.0,93,0.00,,,0.03,23,weatherlink.com 1.10,2013-03-15 23:02:00,
2013-03-15 18:17:00,31.4,30.0,29.92,East,90,7.0,9.0,93,0.00,,,0.03,9,weatherlink.com 1.10,2013-03-15 23:17:00,
2013-03-15 18:32:00,31.2,29.0,29.93,ENE,72,8.0,10.0,93,0.00,,,0.03,5,weatherlink.com 1.10,2013-03-15 23:32:00,
2013-03-15 18:46:00,31.0,29.0,29.93,East,96,3.0,10.0,92,0.00,,,0.03,0,weatherlink.com 1.10,2013-03-15 23:46:00,
2013-03-15 19:02:00,30.9,29.0,29.93,ENE,71,5.0,10.0,91,0.00,,,0.03,0,weatherlink.com 1.10,2013-03-16 00:02:00,
2013-03-15 19:17:00,30.8,29.0,29.93,East,86,3.0,10.0,91,0.00,,,0.03,0,weatherlink.com 1.10,2013-03-16 00:17:00,
2013-03-15 19:32:00,30.6,28.0,29.94,East,84,6.0,10.0,91,0.00,,,0.03,0,weatherlink.com 1.10,2013-03-16 00:32:00,
2013-03-15 19:47:00,30.5,28.0,29.94,ENE,68,2.0,7.0,90,0.00,,,0.03,0,weatherlink.com 1.10,2013-03-16 00:47:00,
2013-03-15 20:02:00,30.3,28.0,29.94,NE,50,4.0,6.0,91,0.00,,,0.03,0,weatherlink.com 1.10,2013-03-16 01:02:00,
2013-03-15 20:17:00,30.2,28.0,29.94,East,85,6.0,8.0,90,0.00,,,0.03,0,weatherlink.com 1.10,2013-03-16 01:17:00,
2013-03-15 20:32:00,30.0,27.0,29.94,East,96,5.0,7.0,88,0.00,,,0.03,0,weatherlink.com 1.10,2013-03-16 01:32:00,
2013-03-15 20:47:00,29.8,27.0,29.94,ESE,112,4.0,9.0,88,0.00,,,0.03,0,weatherlink.com 1.10,2013-03-16 01:47:00,
2013-03-15 21:02:00,29.7,27.0,29.94,East,94,3.0,10.0,88,0.00,,,0.03,0,weatherlink.com 1.10,2013-03-16 02:02:00,
2013-03-15 21:17:00,29.7,27.0,29.94,East,86,8.0,11.0,88,0.00,,,0.03,0,weatherlink.com 1.10,2013-03-16 02:17:00,
2013-03-15 21:32:00,29.4,26.0,29.94,East,80,7.0,11.0,88,0.00,,,0.03,0,weatherlink.com 1.10,2013-03-16 02:32:00,
2013-03-15 21:47:00,29.4,27.0,29.94,ESE,111,3.0,9.0,89,0.00,,,0.03,0,weatherlink.com 1.10,2013-03-16 02:47:00,
2013-03-15 22:02:00,29.1,27.0,29.94,ENE,74,4.0,11.0,90,0.00,,,0.03,0,weatherlink.com 1.10,2013-03-16 03:02:00,
2013-03-15 22:17:00,28.6,26.0,29.93,ESE,117,4.0,9.0,91,0.00,,,0.03,0,weatherlink.com 1.10,2013-03-16 03:17:00,
2013-03-15 22:32:00,28.1,26.0,29.93,ENE,65,4.0,10.0,93,0.00,,,0.03,0,weatherlink.com 1.10,2013-03-16 03:32:00,
2013-03-15 22:48:00,27.6,26.0,29.92,ENE,59,3.0,10.0,94,0.00,,,0.03,0,weatherlink.com 1.10,2013-03-16 03:48:00,
2013-03-15 23:03:00,27.5,26.0,29.91,ENE,76,5.0,9.0,95,0.00,,,0.03,0,weatherlink.com 1.10,2013-03-16 04:03:00,
2013-03-15 23:18:00,27.4,26.0,29.90,ENE,76,9.0,9.0,95,0.00,,,0.03,0,weatherlink.com 1.10,2013-03-16 04:18:00,
2013-03-15 23:33:00,27.4,26.0,29.90,NE,51,8.0,11.0,95,0.00,,,0.03,0,weatherlink.com 1.10,2013-03-16 04:33:00,
2013-03-15 23:48:00,27.4,26.0,29.91,NE,55,6.0,13.0,95,0.00,,,0.03,0,weatherlink.com 1.10,2013-03-16 04:48:00,